Terminal Aerodrome Forecast
Issued by NWS Aberdeen, SD

Home | Current Version | Previous Version | Text Only | Print | Product List | Glossary On
Versions: 1 2 3 4 5 6 7 8 9 10 11 12 13 14 15 16 17 18 19 20 21 22 23 24 25 26 27 28 29 30 31 32 33 34 35 36 37 38 39 40 41 42 43 44
000
FTUS43 KABR 210644 CCA
TAFABR
TAF COR
KABR 210644Z 2107/2206 32013G22KT P6SM FEW100 BKN120
      TEMPO 2107/2110 31027G36KT
     FM211000 33020G29KT P6SM BKN250
     FM212200 31008KT P6SM SKC
     FM220000 VRB05KT P6SM SKC=

USA.gov is the U.S. government's official web portal to all federal, state and local government web resources and services.